Hourly Data Report for October 02, 2016

All times are specified in Local Standard Time (LST). Add 1 hour to adjust for Daylight Saving Time where and when it is observed.

IQALUIT CLIMATE
NUNAVUT

63°44'50.000" N
68°32'40.000" W
33.50 m
2402592
71321
XFB

Download Data

Hourly Data (October 2016)
Hourly Data Report for October 2, 2016
Temp Definition
°C
Dew Point Temp Definition
°C
Rel Hum Definition
%
Wind Dir Definition
10's deg

Wind Spd Definition
km/h
Visibility Definition
km
Stn Press Definition
kPa
Hmdx Definition


Wind Chill Definition


Weather Definition


TIME
00:00 0.1 -0.9 93 10 5   101.14     LegendNANA
01:00 0.1 -0.9 93 10 3   101.12     LegendNANA
02:00 0.1 -0.9 93 35 3   101.08     LegendNANA
03:00 0.5 -1.0 90 34 5   101.06     LegendNANA
04:00 0.3 -0.9 92 33 5   101.03     LegendNANA
05:00 0.3 -0.6 93 34 7   101.01     LegendNANA
06:00 0.7 -0.1 94 31 9   100.98     LegendNANA
07:00 1.1 -0.1 92 30 14   100.94     LegendNANA
08:00 1.5 0.1 91 31 12   100.91     LegendNANA
09:00 2.2 0.2 86 32 18   100.89     LegendNANA
10:00 1.9 0.3 89 32 27   100.88     LegendNANA
11:00 1.5 -0.6 86 33 33   100.86     LegendNANA
12:00 2.3 -1.5 76 34 26   100.89     LegendNANA
13:00 1.2 -2.3 78 33 33   100.92     LegendNANA
14:00 0.5 -4.0 72 32 26   100.96     LegendNANA
15:00 -0.2 -1.8 89 33 20   100.98   -5 LegendNANA
16:00 -0.4 -3.7 78 34 26   101.05   -7 LegendNANA
17:00 -0.6 -3.9 78 33 33   101.07   -8 LegendNANA
18:00 -0.7 -3.4 82 33 28   101.08   -7 LegendNANA
19:00
20:00 -0.3 -3.1 81 33 18   101.13   -5 LegendNANA
21:00 -0.4 -3.4 80 33 30   101.12   -7 LegendNANA
22:00 -0.8 -3.3 83 32 23   101.14   -7 LegendNANA
23:00 -0.8 -3.2 84 32 23   101.14   -7 LegendNANA

Notes on Data Quality.

Legend

  • E = Estimated
  • M = Missing
  • NA = Not Available
  • ‡ = Partner data that is not subject to review by the National Climate Archives
Date modified: